Home   Weather   Binghamton   Past weeks

Flag for USA Past Weather in Binghamton, New York, USA — Yesterday and Last 2 Weeks

43 °F

Mostly cloudy.

Feels Like: 39 °F
Forecast: 41 / 48 °F
Wind: 7 mph from Southwest

Location: Binghamton Regional Airport

Current Time: Oct 24, 2016 at 3:09:24 AM

Latest Report: Oct 24, 2016 at 1:53 AM

Visibility: 10 mi

Pressure: 29.82 "Hg

Humidity: 97%

Dew Point: 42 °F

Location of BinghamtonLocation

Past Weather in Binghamton — Graph


Binghamton Temperature Yesterday

Maximum temperature yesterday: 51 °F (at 3:53 PM)
Minimum temperature yesterday: 37 °F (at 2:53 AM)
Average temperature yesterday: 43 °F

High & Low Weather Summary for the Past Weeks

High76 °F (Oct 18, 1:53 PM)100% (Oct 13, 9:53 AM)30.47 "Hg (Oct 13, 9:53 AM)
Low31 °F (Oct 11, 6:53 AM)31% (Oct 11, 2:53 PM)29.54 "Hg (Oct 22, 8:53 AM)
Average51 °F79%30.06 "Hg
* Reported Oct 9 1:53 AM — Oct 24 1:53 AM, Binghamton, Weather by CustomWeather, © 2016

Note: Actual official high and low records may vary slightly from our data, if they occured in-between our weather recording intervals... More about our weather records


Binghamton Weather History for the Previous 24 Hours

Scroll right to see more
Time TempWeatherWind HumidityBarometerVisibility
1:53 AM
Mon, Oct 24
43 °FMostly cloudy.7 mph97%29.82 "Hg10 mi
12:53 AM43 °FLight rain. Overcast.8 mph97%29.82 "Hg7 mi
11:53 PM
Sun, Oct 23
45 °FLight rain. Overcast.14 mph86%29.82 "Hg8 mi
10:53 PM45 °FPassing clouds.3 mph74%29.83 "Hg10 mi
9:53 PM45 °FPassing clouds.5 mph74%29.85 "Hg10 mi
8:53 PM46 °FMostly cloudy.7 mph73%29.87 "Hg10 mi
7:53 PM46 °FClear.5 mph71%29.88 "Hg10 mi
6:53 PM48 °FPassing clouds.3 mph68%29.87 "Hg10 mi
5:53 PM49 °FBroken clouds.No wind66%29.87 "Hg10 mi
4:53 PM51 °FMostly cloudy.10 mph59%29.85 "Hg10 mi
3:53 PM51 °FOvercast.14 mph59%29.85 "Hg10 mi
2:53 PM49 °FMore clouds than sun.14 mph64%29.85 "Hg10 mi
1:53 PM48 °FMostly cloudy.18 mph66%29.86 "Hg10 mi
12:53 PM47 °FCloudy.17 mph66%29.85 "Hg10 mi
11:53 AM46 °FMostly cloudy.17 mph71%29.86 "Hg10 mi
10:53 AM44 °FOvercast.12 mph73%29.85 "Hg10 mi
9:53 AM43 °FMostly cloudy.15 mph74%29.84 "Hg10 mi
8:53 AM40 °FPartly sunny.10 mph77%29.83 "Hg10 mi
7:53 AM37 °FScattered clouds.9 mph79%29.82 "Hg10 mi
6:53 AM37 °FClear.13 mph76%29.80 "Hg10 mi
5:53 AM37 °FPassing clouds.16 mph76%29.78 "Hg10 mi
4:53 AM38 °FMostly cloudy.15 mph76%29.76 "Hg10 mi
3:53 AM37 °FPassing clouds.15 mph76%29.74 "Hg10 mi
Weather by CustomWeather, © 2016

See weather overviewHow to use our weather pages